[[{"header":{"parameterUnit":"m.s-1","parameterCategory":1,"la1":30.2991,"la2":30.254,"lo1":-89.0895,"lo2":-89.0444,"dy":0.0017,"dx":0.0017,"nx":28,"ny":28,"refTime":"2025-08-01T03:00:00:Z","depth":0,"parameterNumber":2,"parameterNumberName":"U-component_of_WINDS"},"data":[0,0,0,0,0,0,0,0,0,0,0,0,0,0,0,0,0,0,0,0,0,0,0,0,0,0,0,0,0,0,0,0,0,0,0,0,0,0,0,0,0,0,0,0,0,0,0,0,0,0,0,0,0,0,0,0,0,0,3.2158,3.2159,0,3.2252,3.2253,3.2254,3.2193,3.219,3.2188,3.2185,3.2282,3.2287,3.2292,0,0,0,0,0,0,0,0,0,0,0,0,0,3.1923,3.1928,3.2158,3.2159,3.216,3.2252,3.2253,3.2254,3.2194,3.219,3.2187,3.2184,3.228,3.2286,3.2293,0,0,0,0,0,0,0,0,0,0,0,0,0,3.2022,3.1929,3.2157,3.2141,3.214,3.2251,3.2253,3.2255,3.2194,3.219,3.2186,3.2182,3.2278,3.2286,3.2293,3.2426,0,0,3.2317,3.2321,0,0,0,0,0,0,0,0,3.2016,3.203,3.2142,3.2142,3.2142,3.2206,3.2206,3.2312,3.2196,3.2174,3.2185,3.218,3.226,3.2269,3.2296,3.2431,3.2435,3.2318,3.2323,3.2326,3.2328,0,0,0,0,0,0,0,3.2009,3.2026,3.2195,3.2144,3.2144,3.2128,3.2137,3.2226,3.224,3.2175,3.2171,3.2183,3.2259,3.2289,3.2298,3.2436,3.2318,3.2325,3.233,3.2333,3.268,3.2685,0,0,0,0,0,0,3.2004,3.2021,3.2192,3.2198,3.2067,3.2135,3.2146,3.219,3.2239,3.2242,3.2187,3.218,3.2278,3.2289,3.2301,3.2457,3.2326,3.2333,3.2338,3.2676,3.2681,3.2686,0,0,0,0,0,0,3.1999,3.202,3.2188,3.2108,3.2128,3.2144,3.2194,3.2194,3.2223,3.2247,3.2249,3.2214,3.2275,3.229,3.2395,3.2459,3.2337,3.2344,3.267,3.2678,3.2684,3.2771,0,0,0,0,0,0,3.1993,3.2019,3.207,3.211,3.2133,3.2281,3.2198,3.2199,3.2237,3.2229,3.2274,3.2277,3.2273,3.2383,3.2402,3.2468,3.235,3.2665,3.2674,3.2682,3.2762,3.278,3.2795,0,0,0,0,0,3.1985,3.2092,3.2073,3.2094,3.2197,3.2285,3.2298,3.2291,3.2243,3.2293,3.2308,3.2275,3.245,3.2395,3.2416,3.2484,3.2661,3.2671,3.2681,3.2755,3.2777,3.2795,0,0,0,0,0,0,3.206,3.2097,3.2076,3.22,3.2239,3.2274,3.2339,3.2314,3.2369,3.2359,3.2348,3.2358,3.2467,3.2486,3.2424,3.2613,3.2547,3.2562,3.2596,3.2617,3.2633,3.2625,3.2357,0,0,0,0,0,3.2091,3.216,3.2188,3.2294,3.2315,3.2323,3.2361,3.2352,3.2393,3.2409,3.2432,3.2472,3.2535,3.2578,3.2638,3.2765,3.2772,3.2823,3.2839,3.2852,3.2865,3.293,3.2952,3.272,3.272,3.272,0,0,3.2156,3.2184,3.2228,3.2309,3.2339,3.2409,3.2338,3.2416,3.2466,3.2421,3.252,3.2538,3.2582,3.2698,3.275,3.2717,3.293,3.2865,3.2876,3.2881,3.2943,3.2965,3.2984,3.2727,3.2726,3.2724,0,0,3.2309,3.2339,3.2428,3.2459,3.2504,3.2509,3.253,3.2569,3.2578,3.2677,3.2643,3.2704,3.2814,3.2846,3.2877,3.3039,3.3009,3.3059,3.3143,3.3207,3.3225,3.3241,3.3296,3.3316,3.3071,3.3072,3.3072,0,3.2384,3.2488,3.2478,3.2557,3.2592,3.2553,3.2642,3.2673,3.2736,3.276,3.2723,3.2858,3.2886,3.3007,3.3046,3.3073,3.3095,3.3053,3.3223,3.3239,3.3254,3.3306,3.3327,3.3077,3.3076,3.3076,3.3075,0,3.2575,3.2648,3.2715,3.2775,3.2818,3.2902,3.2903,3.2948,3.2935,3.2943,3.3042,3.3073,3.3137,3.3166,3.3154,3.3284,3.3262,3.3225,3.3158,3.3282,3.333,3.335,3.3085,3.3083,3.3081,3.308,0,0,3.2779,3.2831,3.2855,3.288,3.2926,3.2982,3.3063,3.3124,3.3161,3.3206,3.3272,3.3365,3.3329,3.3364,3.3356,3.3412,3.3534,3.3367,3.3368,3.3395,3.3675,3.3701,3.3724,3.3515,3.3519,3.3522,3.367,0,3.2932,3.3074,3.3066,3.3198,3.3263,3.3225,3.3296,3.3331,3.334,3.3396,3.3406,3.347,3.3421,3.3441,3.3495,3.3508,3.359,3.3497,3.3575,3.3578,3.3562,3.375,3.3779,3.3917,3.3689,3.3693,3.3695,0,3.313,3.3179,3.3318,3.335,3.3377,3.3441,3.3494,3.3549,3.3587,3.3589,3.3627,3.3608,3.3688,3.362,3.3729,3.3666,3.3698,3.3709,3.3714,3.3719,3.3643,3.3758,3.3962,3.3981,3.3725,3.3723,3.3721,0,3.3261,3.3362,3.3457,3.348,3.3522,3.3566,3.3586,3.3619,3.3656,3.3703,3.3726,3.3783,3.3813,3.3857,3.3853,3.3804,3.3962,3.3895,3.3965,3.3965,3.3999,3.3996,3.4207,3.4023,3.4023,3.4022,3.4022,0,3.3432,3.3517,3.3515,3.3574,3.3667,3.3656,3.3749,3.3764,3.3793,3.3852,3.3825,3.3881,3.3873,3.3929,3.3927,3.4015,3.403,3.4033,3.4031,3.4034,3.4034,3.4053,3.4043,3.4028,3.4027,3.4026,3.4025,0,3.3593,3.3596,3.3696,3.3727,3.3736,3.3803,3.3829,3.3883,3.3889,3.3964,3.3981,3.399,3.4054,3.4055,3.4129,3.4127,3.4234,3.4223,3.4221,3.4218,3.4287,3.4279,3.4516,3.4545,3.4345,3.4346,3.4348,0,3.3701,3.3765,3.3801,3.3839,3.386,3.3921,3.3957,3.3949,3.3988,3.4034,3.4082,3.4143,3.4191,3.4295,3.4308,3.4363,3.4351,3.443,3.4359,3.4359,3.4349,3.4344,3.4349,3.4443,3.4446,3.4448,3.4449,0,3.389,3.3887,3.3941,3.3994,3.4038,3.408,3.4118,3.415,3.4146,3.4191,3.4255,3.4292,3.4366,3.4426,3.4479,3.4498,3.4472,3.4471,3.449,3.4493,3.4488,3.4488,3.4256,3.4466,3.4464,3.4463,3.4462,3.4461,3.4026,3.408,3.4113,3.4172,3.42,3.4236,3.4287,3.4299,3.4352,3.4411,3.4403,3.4474,3.4507,3.4575,3.4599,3.4653,3.4626,3.4653,3.466,3.4666,3.4672,3.4481,3.4663,3.4663,3.4662,3.4662,3.4662,0,3.4211,3.423,3.4285,3.4338,3.4384,3.4356,3.4396,3.4437,3.4499,3.4533,3.458,3.4652,3.471,3.4726,3.4781,3.4822,3.4811,3.4836,3.4832,3.4836,3.4695,3.4672,3.4844,3.4844,3.4843,3.4843,3.4843,3.4843,3.4313,3.4401,3.4402,3.4503,3.4522,3.459,3.4615,3.4647,3.4673,3.4755,3.4802,3.4813,3.4839,3.4895,3.4945,3.4949,3.4969,3.4998,3.4997,3.4865,3.4846,3.4829,3.4807,3.5004,3.5004,3.5132,3.5134,3.5134]},{"header":{"parameterUnit":"m.s-1","parameterCategory":1,"la1":30.2991,"la2":30.254,"lo1":-89.0895,"lo2":-89.0444,"dy":0.0017,"dx":0.0017,"nx":28,"ny":28,"refTime":"2025-08-01T03:00:00:Z","depth":0,"parameterNumber":3,"parameterNumberName":"V-component_of_WINDS"},"data":[0,0,0,0,0,0,0,0,0,0,0,0,0,0,0,0,0,0,0,0,0,0,0,0,0,0,0,0,0,0,0,0,0,0,0,0,0,0,0,0,0,0,0,0,0,0,0,0,0,0,0,0,0,0,0,0,0,0,3.3063,3.3064,0,3.3179,3.318,3.3181,3.3163,3.3161,3.3159,3.3157,3.3273,3.3278,3.3283,0,0,0,0,0,0,0,0,0,0,0,0,0,3.2821,3.2825,3.3063,3.3064,3.3066,3.3179,3.318,3.3182,3.3163,3.3161,3.3159,3.3156,3.3271,3.3277,3.3283,0,0,0,0,0,0,0,0,0,0,0,0,0,3.293,3.2827,3.3062,3.307,3.3072,3.3178,3.318,3.3182,3.3164,3.3161,3.3158,3.3155,3.3269,3.3277,3.3284,3.3389,0,0,3.3306,3.331,0,0,0,0,0,0,0,0,3.2924,3.2939,3.3068,3.307,3.3072,3.3154,3.3137,3.3251,3.3165,3.3129,3.3157,3.3154,3.3235,3.3245,3.3274,3.3394,3.3399,3.3307,3.3312,3.3315,3.3317,0,0,0,0,0,0,0,3.2916,3.2934,3.3108,3.3069,3.3072,3.3066,3.3079,3.3159,3.3197,3.3132,3.3131,3.3145,3.3236,3.3266,3.3276,3.3401,3.3307,3.3313,3.3318,3.3321,3.3611,3.3614,0,0,0,0,0,0,3.2907,3.2928,3.3105,3.3112,3.2989,3.3073,3.3087,3.313,3.3196,3.3204,3.3147,3.3144,3.3255,3.3268,3.328,3.3406,3.3315,3.3322,3.3326,3.3608,3.3612,3.3615,0,0,0,0,0,0,3.2902,3.2923,3.31,3.302,3.3042,3.308,3.3129,3.3134,3.3165,3.3208,3.3214,3.3172,3.3253,3.327,3.3362,3.341,3.3325,3.3332,3.3604,3.3609,3.3614,3.3659,0,0,0,0,0,0,3.2895,3.2921,3.2963,3.3021,3.3046,3.3181,3.3132,3.3139,3.3178,3.3174,3.3233,3.324,3.3252,3.3351,3.3369,3.3418,3.3337,3.36,3.3606,3.3612,3.3654,3.3665,3.3675,0,0,0,0,0,3.2887,3.2971,3.2965,3.2987,3.3099,3.3184,3.3198,3.3212,3.3182,3.3223,3.325,3.3238,3.3402,3.336,3.3381,3.3433,3.3597,3.3604,3.3612,3.3649,3.3663,3.3675,0,0,0,0,0,0,3.2917,3.2979,3.2973,3.3079,3.3126,3.3181,3.3233,3.3227,3.3284,3.3278,3.3292,3.3305,3.3398,3.3425,3.3377,3.3537,3.3495,3.3507,3.3516,3.353,3.354,3.3532,3.3344,0,0,0,0,0,3.2936,3.3001,3.3051,3.3139,3.3164,3.3194,3.3232,3.3239,3.3288,3.3308,3.3342,3.339,3.3452,3.3492,3.3552,3.3657,3.3669,3.3703,3.3714,3.3723,3.3732,3.3788,3.3804,3.364,3.364,3.3639,0,0,3.2976,3.3018,3.3058,3.3147,3.3184,3.325,3.3212,3.3283,3.3331,3.3318,3.3407,3.3434,3.3488,3.3587,3.3632,3.3612,3.378,3.3732,3.3739,3.3744,3.3797,3.3813,3.3827,3.3645,3.3644,3.3643,0,0,3.3082,3.3121,3.3198,3.3237,3.3294,3.3314,3.3332,3.3388,3.3405,3.3495,3.3486,3.3543,3.365,3.3688,3.3722,3.3841,3.383,3.3859,3.3915,3.3969,3.3982,3.3994,3.4035,3.405,3.3869,3.3869,3.3869,0,3.3124,3.3224,3.3238,3.3311,3.3349,3.3341,3.3418,3.3454,3.3528,3.3554,3.3531,3.3664,3.37,3.3806,3.3835,3.3863,3.3883,3.3853,3.398,3.3991,3.4002,3.4041,3.4057,3.3872,3.3872,3.3872,3.3871,0,3.3272,3.3341,3.3396,3.3468,3.3513,3.3587,3.3611,3.3654,3.3657,3.3678,3.3768,3.3811,3.3878,3.3904,3.3907,3.4011,3.3996,3.3976,3.3934,3.4021,3.4058,3.4073,3.3877,3.3876,3.3875,3.3874,0,0,3.3401,3.3479,3.3499,3.3531,3.3593,3.3646,3.3719,3.3786,3.3822,3.3873,3.3933,3.4023,3.4005,3.4043,3.405,3.4098,3.4187,3.4071,3.4073,3.409,3.4302,3.4316,3.4333,3.4181,3.4184,3.4186,3.4297,0,3.3512,3.3642,3.3656,3.3772,3.3835,3.3828,3.3891,3.3935,3.3957,3.4012,3.4036,3.4099,3.407,3.4093,3.414,3.4166,3.423,3.4159,3.4235,3.4238,3.4222,3.4353,3.4369,3.4471,3.4312,3.4314,3.4316,0,3.3659,3.3714,3.3837,3.3889,3.3916,3.3973,3.4034,3.4088,3.4137,3.4149,3.4191,3.4191,3.4265,3.422,3.432,3.4272,3.4304,3.4321,3.4325,3.4332,3.4282,3.4362,3.4505,3.452,3.4339,3.4337,3.4336,0,3.3739,3.3844,3.393,3.3958,3.4022,3.4061,3.4089,3.4136,3.4174,3.4228,3.4252,3.4313,3.4346,3.4392,3.4408,3.4374,3.4507,3.4464,3.4518,3.4518,3.4546,3.4544,3.4694,3.4568,3.4568,3.4568,3.4568,0,3.3861,3.3936,3.3967,3.402,3.4103,3.4117,3.4198,3.4224,3.4265,3.4322,3.4319,3.4372,3.439,3.4446,3.4459,3.4539,3.4554,3.4565,3.4567,3.4565,3.4563,3.4585,3.4578,3.4572,3.4571,3.457,3.457,0,3.3964,3.3988,3.4082,3.4134,3.4149,3.4207,3.4251,3.4302,3.4322,3.4394,3.4411,3.4443,3.4508,3.4529,3.4607,3.4616,3.4709,3.4706,3.4693,3.4693,3.4745,3.4739,3.4914,3.4937,3.4797,3.4799,3.48,0,3.404,3.4097,3.4156,3.4194,3.4224,3.4285,3.4324,3.4341,3.4381,3.4441,3.4484,3.4548,3.4601,3.4704,3.4734,3.4793,3.479,3.4848,3.4799,3.4794,3.479,3.4786,3.4791,3.4856,3.4858,3.4859,3.486,0,3.4171,3.418,3.4238,3.4299,3.4346,3.4395,3.4442,3.4473,3.4496,3.4542,3.4609,3.4649,3.4729,3.4793,3.4853,3.488,3.4874,3.4875,3.489,3.4888,3.4878,3.4883,3.4716,3.4871,3.487,3.4869,3.4868,3.4868,3.4263,3.4312,3.4361,3.4425,3.4462,3.4505,3.4555,3.4582,3.4638,3.4705,3.4711,3.4782,3.4828,3.4909,3.4939,3.4994,3.4977,3.5,3.5006,3.5011,3.5014,3.487,3.5005,3.5005,3.5005,3.5004,3.5004,0,3.4393,3.4423,3.4482,3.4548,3.4597,3.4588,3.4639,3.468,3.4744,3.4788,3.484,3.4915,3.4977,3.5011,3.5071,3.5109,3.5107,3.5124,3.5121,3.5127,3.5026,3.5006,3.5124,3.5124,3.5124,3.5124,3.5124,3.5124,3.4466,3.455,3.4564,3.4665,3.4695,3.4766,3.4796,3.4835,3.487,3.4955,3.5007,3.5029,3.5068,3.5131,3.5187,3.5195,3.5217,3.5235,3.5241,3.5147,3.5134,3.5122,3.5104,3.524,3.524,3.5337,3.5338,3.5339]}]]